When you browse on this site, cookies collect data to enhance your experience and personalize the content and advertising you see.
Visit our Privacy Policy to learn more. By continuing to use the site, you agree to this use of cookies and data.
  • En España
  • Lista de países
  • Para 7 días
  • Temperatura del agua
  • El tiempo en el mapa
  • Informadores
  • user-avatar
    Iniciar sesión

    Tiempo cada hora Madrid

    Hoy, 18 Octubre, Viernes

    Tiempo Temperatura Precipitaciones Viento Presión Humedad
    00:00 +15°C° 0 mm 2 mps 707 mmHg 90%
    01:00 +16°C° 0 mm 2 mps 707 mmHg 90%
    02:00 +16°C° 0 mm 3 mps 707 mmHg 90%
    03:00 +16°C° 0 mm 3 mps 706 mmHg 90%
    04:00 +16°C° 0 mm 3 mps 707 mmHg 90%
    05:00 +16°C° 0 mm 3 mps 707 mmHg 91%
    06:00 +16°C° 0 mm 2 mps 707 mmHg 92%
    07:00 +16°C° 0.1 mm 3 mps 707 mmHg 89%
    08:00 +17°C° 0.1 mm 3 mps 707 mmHg 86%
    09:00 +18°C° 0.1 mm 4 mps 707 mmHg 83%
    10:00 +19°C° 0 mm 4 mps 707 mmHg 77%
    11:00 +20°C° 0 mm 5 mps 707 mmHg 72%
    12:00 +20°C° 0 mm 6 mps 707 mmHg 66%
    13:00 +21°C° 0 mm 6 mps 706 mmHg 63%
    14:00 +21°C° 0 mm 6 mps 706 mmHg 60%
    15:00 +22°C° 0 mm 6 mps 705 mmHg 57%
    16:00 +21°C° 0 mm 6 mps 705 mmHg 61%
    17:00 +20°C° 0 mm 5 mps 705 mmHg 64%
    18:00 +19°C° 0 mm 4 mps 704 mmHg 67%
    19:00 +18°C° 0 mm 4 mps 705 mmHg 69%
    20:00 +17°C° 0 mm 4 mps 705 mmHg 71%
    21:00 +17°C° 0 mm 4 mps 705 mmHg 73%
    22:00 +16°C° 0 mm 3 mps 705 mmHg 74%
    23:00 +14°C° 0 mm 3 mps 704 mmHg 75%

    Mañana, 19 Octubre, Sábado

    Tiempo Temperatura Precipitaciones Viento Presión Humedad
    00:00 +14°C° 0 mm 3 mps 704 mmHg 76%
    01:00 +13°C° 0 mm 3 mps 704 mmHg 76%
    02:00 +13°C° 0 mm 3 mps 703 mmHg 76%
    03:00 +13°C° 0 mm 3 mps 703 mmHg 75%
    04:00 +12°C° 0 mm 3 mps 703 mmHg 77%
    05:00 +12°C° 0 mm 3 mps 703 mmHg 78%
    06:00 +11°C° 0 mm 3 mps 702 mmHg 80%
    07:00 +12°C° 0 mm 3 mps 702 mmHg 77%
    08:00 +13°C° 0 mm 4 mps 702 mmHg 73%
    09:00 +14°C° 0 mm 4 mps 702 mmHg 70%
    10:00 +14°C° 0 mm 4 mps 702 mmHg 67%
    11:00 +14°C° 0 mm 5 mps 701 mmHg 64%
    12:00 +15°C° 0 mm 5 mps 701 mmHg 61%
    13:00 +15°C° 0 mm 6 mps 701 mmHg 60%
    14:00 +16°C° 0 mm 7 mps 700 mmHg 58%
    15:00 +17°C° 0 mm 7 mps 700 mmHg 56%
    16:00 +16°C° 0.4 mm 6 mps 699 mmHg 64%
    17:00 +15°C° 0.4 mm 5 mps 699 mmHg 71%
    18:00 +14°C° 0.4 mm 4 mps 698 mmHg 79%
    19:00 +14°C° 1 mm 5 mps 698 mmHg 80%
    20:00 +14°C° 1 mm 6 mps 698 mmHg 81%
    21:00 +15°C° 1 mm 8 mps 698 mmHg 82%
    22:00 +13°C° 1 mm 8 mps 698 mmHg 80%
    23:00 +13°C° 1 mm 9 mps 698 mmHg 78%

    Pasado mañana, 20 Octubre, Domingo

    Tiempo Temperatura Precipitaciones Viento Presión Humedad
    00:00 +12°C° 1 mm 9 mps 698 mmHg 77%
    01:00 +11°C° 0 mm 9 mps 698 mmHg 79%
    02:00 +9°C° 0 mm 8 mps 698 mmHg 81%
    03:00 +7°C° 0 mm 8 mps 698 mmHg 83%
    04:00 +8°C° 0 mm 7 mps 699 mmHg 82%
    05:00 +8°C° 0 mm 7 mps 699 mmHg 82%
    06:00 +8°C° 0 mm 7 mps 700 mmHg 82%
    07:00 +9°C° 0 mm 7 mps 701 mmHg 80%
    08:00 +9°C° 0 mm 6 mps 701 mmHg 78%
    09:00 +9°C° 0 mm 6 mps 702 mmHg 76%
    10:00 +10°C° 0 mm 6 mps 703 mmHg 70%
    11:00 +12°C° 0 mm 5 mps 703 mmHg 65%
    12:00 +13°C° 0 mm 5 mps 703 mmHg 60%
    13:00 +13°C° 0 mm 4 mps 703 mmHg 58%
    14:00 +13°C° 0 mm 4 mps 704 mmHg 56%
    15:00 +13°C° 0 mm 4 mps 704 mmHg 54%
    16:00 +13°C° 0 mm 3 mps 704 mmHg 57%
    17:00 +12°C° 0 mm 3 mps 704 mmHg 60%
    18:00 +11°C° 0 mm 3 mps 705 mmHg 63%
    19:00 +12°C° 0 mm 2 mps 705 mmHg 64%
    20:00 +10°C° 0 mm 2 mps 705 mmHg 65%
    21:00 +10°C° 0 mm 2 mps 706 mmHg 67%
    22:00 +10°C° 0 mm 2 mps 706 mmHg 68%
    23:00 +9°C° 0 mm 2 mps 706 mmHg 69%

    21 Octubre, Lunes

    Tiempo Temperatura Precipitaciones Viento Presión Humedad
    00:00 +9°C° 0 mm 2 mps 706 mmHg 70%
    01:00 +10°C° 0 mm 1 mps 706 mmHg 70%
    02:00 +10°C° 0 mm 1 mps 706 mmHg 70%
    03:00 +10°C° 0 mm 1 mps 706 mmHg 71%
    04:00 +10°C° 0 mm 1 mps 706 mmHg 72%
    05:00 +9°C° 0 mm 1 mps 706 mmHg 73%
    06:00 +9°C° 0 mm 1 mps 706 mmHg 74%
    07:00 +10°C° 0 mm 1 mps 706 mmHg 70%
    08:00 +11°C° 0 mm 1 mps 706 mmHg 65%
    09:00 +12°C° 0 mm 1 mps 706 mmHg 61%
    10:00 +13°C° 0 mm 1 mps 706 mmHg 57%
    11:00 +14°C° 0 mm 1 mps 706 mmHg 54%
    12:00 +15°C° 0 mm 1 mps 706 mmHg 50%
    13:00 +15°C° 0 mm 1 mps 705 mmHg 47%
    14:00 +16°C° 0 mm 1 mps 705 mmHg 45%
    15:00 +16°C° 0 mm 1 mps 705 mmHg 42%
    16:00 +15°C° 0 mm 1 mps 705 mmHg 44%
    17:00 +15°C° 0 mm 1 mps 705 mmHg 47%
    18:00 +14°C° 0 mm 1 mps 705 mmHg 50%
    19:00 +14°C° 0 mm 2 mps 705 mmHg 52%
    20:00 +12°C° 0 mm 3 mps 705 mmHg 55%
    21:00 +12°C° 0 mm 3 mps 705 mmHg 57%
    22:00 +11°C° 0 mm 4 mps 705 mmHg 59%
    23:00 +11°C° 0 mm 4 mps 705 mmHg 62%

    22 Octubre, Martes

    Tiempo Temperatura Precipitaciones Viento Presión Humedad
    00:00 +10°C° 0 mm 4 mps 705 mmHg 64%
    01:00 +10°C° 0 mm 4 mps 705 mmHg 65%
    02:00 +10°C° 0 mm 4 mps 704 mmHg 66%
    03:00 +8°C° 0 mm 4 mps 704 mmHg 67%
    04:00 +8°C° 0 mm 4 mps 704 mmHg 68%
    05:00 +8°C° 0 mm 4 mps 704 mmHg 70%
    06:00 +8°C° 0 mm 4 mps 704 mmHg 71%
    07:00 +10°C° 0 mm 4 mps 704 mmHg 68%
    08:00 +11°C° 0 mm 4 mps 704 mmHg 64%
    09:00 +12°C° 0 mm 4 mps 704 mmHg 60%
    10:00 +13°C° 0 mm 4 mps 704 mmHg 56%
    11:00 +14°C° 0 mm 4 mps 703 mmHg 51%
    12:00 +14°C° 0 mm 4 mps 703 mmHg 47%
    13:00 +14°C° 0 mm 4 mps 703 mmHg 49%
    14:00 +14°C° 0 mm 4 mps 702 mmHg 51%
    15:00 +14°C° 0 mm 4 mps 702 mmHg 53%
    16:00 +13°C° 0 mm 4 mps 702 mmHg 56%
    17:00 +13°C° 0 mm 4 mps 702 mmHg 60%
    18:00 +12°C° 0 mm 3 mps 702 mmHg 63%
    19:00 +12°C° 0 mm 3 mps 702 mmHg 65%
    20:00 +12°C° 0 mm 3 mps 702 mmHg 66%
    21:00 +12°C° 0 mm 3 mps 702 mmHg 68%
    22:00 +12°C° 0 mm 3 mps 702 mmHg 69%
    23:00 +12°C° 0 mm 3 mps 702 mmHg 70%

    23 Octubre, Miércoles

    Tiempo Temperatura Precipitaciones Viento Presión Humedad
    00:00 +11°C° 0 mm 3 mps 701 mmHg 70%
    01:00 +11°C° 0.1 mm 3 mps 701 mmHg 71%
    02:00 +11°C° 0.1 mm 3 mps 700 mmHg 72%
    03:00 +11°C° 0.1 mm 3 mps 700 mmHg 73%
    04:00 +11°C° 0.1 mm 3 mps 700 mmHg 73%
    05:00 +11°C° 0.1 mm 3 mps 699 mmHg 73%
    06:00 +11°C° 0.1 mm 3 mps 699 mmHg 73%
    07:00 +13°C° 0 mm 2 mps 699 mmHg 70%
    08:00 +13°C° 0 mm 2 mps 699 mmHg 68%
    09:00 +13°C° 0 mm 2 mps 698 mmHg 65%
    10:00 +13°C° 0.2 mm 4 mps 698 mmHg 62%
    11:00 +14°C° 0.2 mm 6 mps 698 mmHg 60%
    12:00 +15°C° 0.2 mm 7 mps 697 mmHg 58%
    13:00 +15°C° 0.1 mm 8 mps 697 mmHg 58%
    14:00 +13°C° 0.1 mm 8 mps 697 mmHg 59%
    15:00 +13°C° 0.1 mm 8 mps 696 mmHg 60%
    16:00 +14°C° 0 mm 7 mps 697 mmHg 61%
    17:00 +14°C° 0 mm 6 mps 697 mmHg 63%
    18:00 +14°C° 0 mm 5 mps 697 mmHg 65%
    19:00 +13°C° 0.3 mm 5 mps 698 mmHg 66%
    20:00 +13°C° 0.3 mm 5 mps 698 mmHg 68%
    21:00 +13°C° 0.3 mm 5 mps 699 mmHg 69%
    22:00 +13°C° 0.7 mm 5 mps 699 mmHg 71%
    23:00 +12°C° 0.7 mm 4 mps 699 mmHg 72%
    Mostrar más